Wind_Speed
7 6 6 3 5 8 8 5 2 2 2 3 4 2 3 3 2 3 5 4 3 5 4 3 4 4 3 2 3 3 3 3 2 2 1 1 3 6 6 7 9 9 9 11 14 12 10 11 15 21 18 17 17 17 18 18 19 19 19 19 19 19 19 20 21 22 22 23 22 23 24 24 24 24 24 22 21 20 18 19 19 18 16 16 17 18 18 18 18 15 12 10 9 11 15 17 17
6 3 5 5 8 7 3 2 2 2 3 3 4 3 3 2 2 4 7 6 4 4 3 3 3 2 1 1 2 1 2 3 3 1 2 3 3 6 9 9 10 9 8 12 15 12 11 12 17 21 19 18 16 17 18 18 19 19 19 19 19 19 19 20 20 21 21 21 21 23 24 25 25 25 24 22 21 20 19 18 19 20 17 16 17 17 17 18 19 17 15 14 10 8 12 17 17
6 4 7 6 7 5 2 1 2 3 2 4 3 2 2 3 5 7 7 7 5 4 2 1 1 0 2 2 1 1 1 2 4 2 1 5 2 6 11 9 11 9 9 13 14 12 11 12 18 20 18 18 16 16 17 18 19 19 19 19 19 19 20 20 21 21 21 21 21 22 24 24 25 25 24 23 21 20 20 18 19 19 18 18 17 16 17 18 19 16 16 18 14 8 9 12 16
6 4 7 6 4 4 3 2 2 3 3 3 3 2 2 5 6 7 7 5 4 2 1 2 0 1 4 3 2 1 2 3 5 2 2 5 4 7 10 9 10 8 10 12 12 12 11 14 18 19 18 18 17 16 16 18 18 19 19 18 18 19 20 20 21 22 21 21 20 21 23 24 24 24 24 23 21 20 20 19 19 18 19 19 17 16 17 17 19 17 15 17 15 10 8 7 15
3 3 7 6 3 1 2 1 1 3 3 1 2 3 4 7 6 7 5 4 3 2 2 3 1 1 1 2 2 2 1 3 4 3 1 4 4 6 8 9 9 8 9 10 11 12 11 15 18 18 18 18 17 17 17 17 18 19 18 18 18 19 20 20 22 22 22 22 21 21 22 23 23 23 22 22 22 21 20 20 20 19 19 18 17 16 16 15 17 16 15 15 15 15 9 6 12
4 6 9 7 2 0 2 1 3 5 2 3 3 4 5 6 5 6 5 4 3 2 2 3 2 1 0 2 1 2 2 1 2 3 1 3 5 6 8 8 8 8 9 11 11 11 13 16 18 18 18 19 18 18 17 18 19 19 18 18 19 19 20 21 22 22 22 22 21 21 22 23 23 23 21 21 21 21 21 20 20 19 19 18 17 15 15 15 15 15 15 16 15 17 15 9 9
7 5 5 5 2 0 1 2 4 4 2 5 4 5 5 6 4 3 4 3 2 2 1 2 3 2 1 1 1 4 5 3 1 3 1 5 5 6 7 7 8 7 10 13 12 11 14 16 17 19 19 19 19 19 19 19 19 19 19 19 19 20 21 23 23 23 22 21 22 22 23 22 22 23 21 20 20 21 21 21 20 19 19 18 18 16 15 14 14 14 15 15 14 16 17 14 9
7 4 1 1 1 1 2 4 4 3 2 4 6 5 6 5 3 1 2 1 0 2 2 1 1 2 1 2 1 4 6 4 1 0 2 4 4 6 7 7 7 8 12 14 13 14 15 15 16 19 20 20 20 20 20 19 19 20 20 20 21 21 22 23 24 23 23 22 22 22 23 22 22 22 21 20 20 20 20 20 20 19 18 17 17 16 15 14 14 14 14 14 13 16 16 16 11
8 3 1 0 1 1 3 4 3 3 4 4 5 5 5 4 2 1 1 2 1 1 2 2 1 1 1 2 1 5 5 4 1 1 2 3 4 8 7 7 8 9 13 13 14 16 15 14 16 18 20 20 20 20 20 19 19 20 21 21 22 22 23 23 24 24 23 22 23 23 23 23 22 21 20 19 20 20 20 19 19 18 17 16 16 15 15 14 13 13 13 14 14 17 16 14 10
5 3 1 1 1 3 2 3 3 4 4 4 4 5 4 3 2 0 1 3 2 0 3 3 1 2 4 2 2 4 5 3 0 0 1 3 6 8 7 7 9 10 13 14 16 17 14 14 15 16 19 21 20 20 21 20 20 20 21 22 22 23 23 24 25 24 23 22 23 24 23 23 22 21 20 19 19 20 20 18 18 17 16 15 16 14 14 13 14 14 13 13 14 16 14 13 11
1 2 1 1 1 2 3 4 4 3 4 4 4 5 3 2 1 1 1 2 2 0 3 2 2 2 4 1 2 4 6 3 1 1 1 5 7 7 8 9 9 11 12 14 16 16 14 14 15 15 17 20 21 22 23 23 22 21 22 22 22 22 23 25 26 26 25 23 23 24 24 23 22 21 20 18 18 19 19 17 16 16 15 15 15 14 13 13 13 15 14 13 13 13 13 13 12
1 2 1 1 0 2 3 5 4 4 4 3 4 4 3 3 1 1 1 1 2 2 3 2 1 1 3 0 2 6 8 4 2 0 3 5 6 7 9 10 10 12 13 15 15 14 14 15 15 15 16 19 20 22 23 23 23 22 22 22 22 23 24 26 27 27 27 26 25 25 25 24 23 21 19 18 18 19 18 16 14 14 14 14 14 13 13 13 13 13 14 12 12 12 13 14 13
1 1 0 2 1 3 4 5 4 5 4 2 4 4 3 3 2 1 1 0 1 2 3 3 1 1 3 1 4 7 7 4 2 1 4 5 7 9 11 11 11 12 13 14 12 11 14 15 15 15 16 18 18 21 22 23 23 21 21 22 24 26 26 27 28 28 27 27 25 25 25 24 23 20 18 19 19 18 16 15 14 14 13 12 13 13 12 12 11 11 12 11 11 12 12 14 13
2 1 1 1 0 2 4 4 4 4 3 3 5 5 3 1 1 4 2 1 1 1 3 2 1 1 2 1 3 4 5 4 0 2 4 6 9 11 13 14 13 11 11 9 9 10 13 14 15 16 15 17 18 20 22 23 23 21 22 23 25 27 28 28 29 29 27 25 25 27 27 25 23 20 20 19 18 17 16 15 13 13 13 11 11 12 11 10 10 11 11 10 11 12 11 11 13
2 1 1 2 1 2 2 1 4 2 3 5 4 5 3 1 3 2 2 2 2 3 2 2 1 1 1 2 1 3 4 3 1 3 5 8 9 12 13 13 12 9 6 6 9 11 12 14 16 15 14 16 17 20 22 23 23 23 23 24 24 26 27 28 29 28 27 25 25 28 28 28 25 21 20 18 16 17 17 15 14 13 12 11 11 11 11 10 10 11 11 10 10 11 10 9 13
2 2 1 2 1 1 1 0 3 1 3 5 4 4 4 3 2 1 1 2 1 2 2 1 2 2 2 2 2 4 3 2 2 4 6 8 9 12 12 10 9 7 6 7 10 10 11 13 14 14 14 15 18 20 20 22 23 23 23 22 23 25 26 27 28 27 27 26 26 28 28 29 27 23 21 19 17 17 17 15 15 14 12 11 10 10 10 10 10 10 10 10 9 10 9 9 14
1 1 0 2 1 2 1 1 2 2 4 4 5 4 3 4 3 1 2 2 4 2 3 3 4 4 4 4 0 3 3 1 3 5 7 8 10 12 11 9 8 9 9 9 9 9 10 12 13 13 13 15 19 19 19 21 22 22 21 21 23 25 24 25 27 26 27 26 27 30 30 29 28 25 23 23 20 16 16 15 14 14 11 11 9 9 9 9 10 10 10 10 9 10 8 9 14
2 2 1 2 2 2 2 3 3 3 6 4 5 4 2 3 3 2 1 4 5 5 5 5 5 6 8 7 4 4 4 3 4 5 7 8 10 12 11 10 9 10 10 10 9 9 11 12 11 11 13 16 19 19 18 19 20 20 21 21 23 24 24 25 26 25 26 26 27 30 30 31 29 26 24 24 23 18 16 15 14 13 9 8 7 7 8 9 11 11 10 10 9 10 8 9 14
1 2 1 3 3 3 4 5 4 2 6 6 5 3 1 2 1 1 2 4 5 6 6 6 7 7 10 10 9 6 5 4 4 5 7 8 10 12 11 10 10 11 11 10 11 11 11 10 10 11 14 16 18 18 17 18 19 19 20 22 23 23 24 25 25 24 25 25 27 29 29 31 29 26 25 25 24 19 17 16 15 12 8 6 3 2 3 4 8 10 10 10 9 11 10 11 15
1 2 3 3 3 5 6 6 5 6 4 6 5 3 1 1 1 1 2 5 4 5 2 3 4 2 2 5 8 5 3 4 6 8 9 10 11 10 9 10 10 10 11 11 11 10 9 9 11 13 14 15 17 18 17 18 19 18 19 22 22 22 24 25 24 23 24 25 27 27 28 31 29 26 25 25 26 23 22 19 16 14 12 10 6 3 3 3 2 3 7 10 11 13 13 13 16
2 3 4 2 3 6 5 6 6 6 4 4 5 3 1 2 1 1 3 5 3 1 3 2 2 3 3 2 6 6 5 7 9 10 11 11 10 8 8 9 9 9 10 11 11 10 9 10 11 13 14 14 15 16 16 17 17 16 19 22 22 21 22 24 24 22 23 25 26 26 27 28 28 27 27 27 28 26 24 22 17 15 16 15 12 9 5 4 6 5 1 4 9 13 13 14 17
3 4 5 4 3 5 4 5 5 6 4 4 4 2 1 1 1 4 4 4 2 2 3 1 2 2 2 2 1 4 6 7 9 10 10 9 7 7 8 8 8 9 10 10 11 10 9 9 10 14 15 13 13 15 15 15 14 14 18 20 20 20 21 23 23 21 22 24 24 25 26 26 26 27 28 28 29 27 25 22 17 16 16 15 14 12 7 4 6 6 4 4 3 7 11 15 15
2 4 5 6 6 6 5 4 4 5 4 3 1 1 2 2 4 2 4 7 4 2 0 3 1 2 2 4 5 5 5 6 8 8 8 7 7 8 8 8 8 8 9 9 9 9 8 8 11 14 13 12 13 13 13 13 11 14 16 18 19 18 20 21 21 21 20 22 23 24 25 24 24 25 27 28 28 27 26 22 17 16 17 16 14 12 8 6 5 3 2 4 5 5 9 13 12
5 4 4 6 7 6 5 4 3 4 4 3 3 3 4 5 3 1 3 8 7 7 3 3 3 4 5 6 6 6 7 8 9 9 9 9 8 8 8 9 9 8 8 8 7 9 8 8 10 11 11 12 13 13 13 11 11 13 14 16 17 16 19 19 19 20 19 20 21 23 24 22 22 23 25 26 27 27 26 22 17 15 15 15 13 9 8 8 9 8 6 7 8 8 9 11 11
6 5 4 4 5 5 4 4 3 2 1 2 3 5 6 4 1 2 7 9 8 7 4 5 4 5 6 6 6 6 7 8 9 9 9 8 7 7 7 8 8 8 7 6 7 9 7 7 10 9 9 13 13 13 12 11 12 13 13 15 15 15 18 17 17 19 19 19 20 22 22 21 20 20 23 25 25 26 25 23 19 15 14 14 13 10 9 9 11 13 11 10 9 9 8 9 11
4 5 5 5 5 4 3 3 3 1 1 1 3 6 4 1 3 5 9 8 4 5 5 5 5 5 6 6 6 6 6 7 8 7 7 7 6 7 9 9 8 7 5 5 7 6 6 9 11 9 10 13 13 13 12 12 13 12 13 15 14 14 17 16 15 17 18 19 19 21 21 19 19 18 20 23 24 25 24 23 21 18 15 13 12 10 11 10 9 11 11 10 8 7 8 8 9
5 8 6 6 5 3 1 1 2 2 2 2 3 5 4 2 1 5 5 4 5 6 5 6 6 6 7 6 6 7 6 7 7 7 7 6 7 9 10 9 8 6 5 6 6 6 8 10 10 9 11 12 13 12 11 12 12 12 14 15 13 14 17 15 14 15 17 18 18 20 20 18 18 16 18 21 23 24 23 23 22 21 18 13 11 8 9 11 9 9 10 11 9 7 8 7 9
8 8 7 6 4 3 2 3 2 2 2 4 3 6 6 2 2 6 4 5 6 6 6 7 6 7 7 6 6 7 7 8 9 8 7 8 8 7 6 6 7 6 6 7 7 8 10 10 10 10 11 11 12 12 11 11 11 12 13 13 12 14 17 15 13 15 16 17 17 19 19 18 17 16 17 19 21 22 22 22 22 23 21 16 13 10 10 12 11 10 10 11 11 9 7 7 10
6 4 4 4 3 3 4 3 2 2 1 2 2 5 5 5 7 8 6 6 5 6 6 6 7 7 6 6 6 6 7 9 10 9 9 9 8 7 7 7 8 8 9 9 8 10 10 10 11 11 10 11 11 11 11 11 11 12 13 12 11 13 16 14 12 14 15 16 17 18 18 18 17 16 15 17 18 19 21 22 22 24 23 19 16 14 13 13 14 12 11 11 11 11 10 8 9
4 3 2 4 2 2 5 2 2 3 1 1 1 3 2 8 10 5 6 6 5 5 6 6 6 6 6 6 5 5 7 8 9 10 11 10 9 8 8 9 9 10 10 10 11 12 10 10 11 12 11 11 11 11 12 12 12 12 13 11 11 13 14 13 12 13 14 14 16 17 18 17 17 15 14 15 16 17 19 20 21 22 22 20 18 17 15 14 14 14 13 13 13 12 12 11 9
2 1 1 3 2 1 3 1 2 2 1 1 1 2 3 5 8 5 6 6 5 5 7 7 6 5 5 5 5 5 6 9 10 11 11 10 9 9 9 10 10 10 10 11 12 12 11 11 11 12 13 12 11 11 12 14 13 13 12 11 12 12 13 12 11 12 13 13 14 15 17 17 17 15 14 12 13 15 16 17 18 19 21 21 19 18 17 16 15 15 14 14 15 14 14 13 11
2 2 1 3 2 1 3 0 1 1 1 2 1 3 4 2 7 6 5 6 5 6 6 6 6 6 5 5 5 5 5 8 10 10 10 10 10 10 10 10 10 10 10 11 11 12 12 12 11 12 13 13 12 12 12 13 14 13 12 11 11 12 12 11 9 11 13 12 13 14 15 16 17 15 14 12 11 13 14 14 14 15 17 20 20 20 19 17 16 16 16 15 15 14 14 14 13
3 2 2 1 1 1 2 0 1 3 2 3 3 3 4 2 5 6 6 6 6 6 6 6 6 5 5 5 4 4 4 5 6 8 9 10 10 9 9 10 9 10 10 11 11 12 12 12 12 12 13 13 13 13 12 12 13 13 12 11 11 11 13 11 9 11 13 12 12 13 13 14 15 15 14 13 11 12 12 12 12 12 12 14 16 18 19 19 18 17 17 16 15 15 15 14 14
2 2 2 1 1 2 1 0 1 2 3 3 3 4 6 5 4 7 8 7 7 6 7 6 6 5 5 5 3 3 3 4 5 7 8 8 7 7 7 8 8 9 9 11 12 13 14 13 13 13 13 13 13 13 13 13 12 11 11 11 10 12 12 10 9 12 13 12 12 12 12 12 13 14 15 14 12 11 11 11 11 11 9 10 11 13 16 18 18 18 18 16 15 15 15 15 14
2 2 2 1 2 2 1 1 1 3 3 3 4 5 9 10 8 6 9 9 8 7 7 6 6 5 4 3 3 3 3 4 5 4 4 4 3 5 5 6 8 9 10 12 13 13 14 14 14 14 14 13 13 12 12 13 12 10 10 10 11 11 11 9 11 14 13 12 12 12 11 11 11 12 13 14 12 11 11 11 11 11 10 10 10 11 13 15 16 16 16 17 15 15 14 14 13
4 3 2 3 4 1 2 2 1 3 2 5 6 6 9 9 8 6 7 10 8 7 7 6 6 4 3 3 3 4 4 4 3 1 2 3 4 4 5 6 7 9 11 12 13 14 14 15 15 14 13 12 11 11 11 12 11 10 9 9 9 9 9 10 12 14 13 12 12 12 11 10 10 10 11 12 12 11 10 12 11 10 11 12 11 11 11 12 14 13 12 13 13 13 12 12 11
4 4 4 4 2 1 2 2 1 3 3 5 6 6 9 8 8 8 5 9 7 7 6 6 6 5 5 5 6 6 5 3 2 1 5 7 7 7 8 8 9 10 12 13 13 13 13 13 13 13 13 12 11 12 11 10 10 10 10 9 9 9 10 10 12 12 11 14 15 12 10 10 9 9 9 10 11 10 9 10 11 10 10 11 11 11 10 9 10 10 9 9 9 9 9 8 8
4 3 5 3 1 2 2 3 1 2 2 4 4 7 10 8 9 7 5 8 7 7 6 6 7 7 6 6 6 5 3 1 2 4 7 8 8 7 8 9 9 11 11 11 11 11 11 11 12 13 13 12 11 12 12 12 11 11 11 11 12 13 13 12 12 11 11 15 17 14 11 9 9 10 9 8 9 9 9 8 9 10 9 9 10 10 9 8 7 7 7 7 6 8 8 6 6
4 4 4 3 3 3 2 2 2 0 0 4 7 8 11 10 8 4 7 6 5 5 4 3 4 5 6 6 6 4 2 2 2 4 5 6 8 8 7 8 8 10 10 10 10 10 11 11 12 12 11 11 10 11 12 13 13 12 12 14 15 15 14 13 12 12 12 13 14 14 12 10 10 10 9 8 7 7 8 8 7 8 8 8 9 10 10 9 8 6 5 7 6 5 6 5 4
3 3 2 2 4 3 1 0 4 5 3 4 6 7 9 8 3 2 4 3 1 2 1 1 1 3 2 2 3 4 3 3 4 4 3 2 5 7 8 9 8 9 9 10 10 10 10 10 11 10 10 10 10 11 11 13 14 13 14 15 14 14 13 11 11 11 10 9 10 12 12 12 12 12 11 9 8 6 6 7 6 6 6 6 7 9 10 9 9 7 6 7 8 6 4 3 3
3 4 3 1 2 2 3 4 8 7 2 3 6 5 5 2 2 1 1 3 3 1 2 3 4 4 3 2 0 3 4 4 3 4 3 3 3 4 6 6 6 8 9 10 9 9 10 11 11 11 11 12 11 11 11 12 13 14 14 13 12 11 11 10 10 9 7 7 8 9 11 13 15 15 14 11 9 7 6 5 5 5 4 4 4 5 7 7 8 7 5 6 8 8 7 4 3
1 2 2 1 2 3 5 7 7 4 1 2 3 3 4 3 2 3 3 1 3 4 4 6 6 5 5 4 4 5 5 5 4 4 4 3 4 4 5 5 6 8 9 9 9 10 11 12 12 11 11 11 11 11 11 12 13 13 13 12 13 12 12 12 10 9 8 8 9 9 10 14 16 17 16 14 11 9 7 6 4 4 4 3 3 2 3 5 5 6 5 3 4 5 6 6 6
1 2 2 1 2 3 4 6 4 2 2 3 3 3 3 6 2 2 3 2 4 4 5 7 6 6 6 6 6 5 5 6 5 5 4 4 5 6 7 7 7 8 8 8 10 12 13 12 12 11 11 10 10 11 11 12 12 13 13 13 13 14 15 15 13 11 11 12 12 12 13 14 15 16 16 15 14 12 10 8 6 6 5 5 4 3 3 4 5 6 6 5 5 3 3 7 9
1 3 2 2 2 3 3 4 2 1 2 3 4 3 1 5 4 1 2 1 3 5 7 7 7 7 6 6 6 6 6 6 6 5 5 6 7 6 7 7 7 7 8 10 13 14 14 13 12 11 12 11 11 11 11 12 12 12 12 13 14 15 16 16 15 14 14 13 14 14 14 13 13 14 15 14 14 14 13 11 9 7 7 6 6 6 6 6 6 6 6 6 6 4 4 6 8
0 1 1 2 2 2 3 2 4 3 2 3 5 3 1 5 4 1 1 1 3 5 5 4 5 6 7 7 6 6 6 5 6 6 6 6 6 6 7 7 8 10 11 13 14 14 14 13 13 13 13 13 13 12 12 12 12 12 13 14 15 16 16 16 15 15 15 14 14 15 15 14 13 13 14 14 13 13 13 13 12 11 9 8 8 8 8 8 8 7 7 7 7 7 7 7 8
0 1 1 1 1 2 2 2 4 2 3 1 5 3 1 4 5 2 1 2 2 1 3 3 3 2 4 6 6 6 5 5 5 4 5 6 6 7 8 9 11 13 14 14 14 13 13 13 13 14 15 15 14 13 13 13 13 13 14 15 16 17 17 16 15 15 16 15 15 16 15 14 13 12 13 13 13 14 13 14 14 14 12 11 10 10 10 11 10 9 10 9 9 10 9 9 9
2 1 1 1 2 2 2 3 2 2 2 3 4 3 2 2 4 1 1 1 1 3 4 4 4 2 1 3 3 4 5 5 6 5 6 7 8 9 9 11 14 14 14 14 14 13 13 13 13 14 15 15 15 15 14 14 14 14 15 15 16 17 17 17 17 17 17 16 16 16 15 14 12 12 13 14 15 15 14 14 14 15 15 14 14 13 13 13 12 12 12 11 12 11 11 12 12
2 1 1 1 1 1 1 2 1 3 1 3 3 3 2 1 4 1 3 3 4 4 3 5 4 2 2 2 2 3 4 3 4 4 5 5 7 9 10 12 14 13 12 12 13 13 13 13 13 15 16 16 15 15 15 16 16 15 16 16 16 17 17 17 18 19 18 17 17 16 15 14 13 13 13 15 16 15 14 14 14 15 16 16 16 16 15 15 14 14 14 14 14 14 14 14 15
2 2 2 2 2 2 2 2 1 1 2 3 1 2 1 4 5 2 4 4 4 4 4 5 3 2 2 1 1 2 2 2 2 2 3 5 6 9 11 13 14 14 13 13 13 13 13 13 14 15 18 17 15 15 15 16 17 17 17 17 18 17 17 18 18 19 19 19 18 17 16 15 15 14 14 15 16 16 15 15 15 16 16 17 17 18 18 17 16 16 16 17 17 17 16 16 17
2 1 2 2 2 2 2 3 2 1 3 3 0 2 2 3 4 3 5 5 4 4 4 4 3 1 1 3 3 4 5 4 4 4 5 5 7 11 13 15 16 16 15 13 12 12 13 14 14 16 19 18 15 15 15 17 18 19 19 19 19 19 18 18 18 19 19 19 19 19 18 17 17 17 16 16 16 16 17 17 17 17 17 18 18 19 19 19 19 19 20 20 20 20 19 19 20
2 1 2 2 3 2 0 1 1 2 4 3 2 1 2 2 2 3 6 5 4 4 3 3 1 1 2 3 4 5 6 6 5 5 5 6 8 11 12 13 14 15 15 14 13 13 13 14 15 17 19 18 16 15 15 17 18 19 19 20 20 20 20 20 19 19 19 20 20 20 20 20 20 20 19 19 18 18 19 19 19 19 19 19 20 20 21 21 21 22 23 23 23 23 22 22 22
2 1 2 1 1 1 1 1 2 1 2 2 1 2 4 3 1 3 5 3 2 3 3 2 2 3 2 3 5 5 5 5 3 2 4 6 8 10 11 12 13 14 14 14 14 14 14 16 17 18 19 18 17 16 16 17 18 19 19 20 20 20 21 21 21 21 20 20 20 21 22 22 22 22 22 21 21 20 21 21 21 21 21 21 21 22 23 24 24 24 25 26 26 25 25 25 25
1 2 1 2 0 2 2 1 1 2 1 3 2 3 4 2 2 1 2 2 2 3 3 3 4 4 3 4 6 5 4 2 2 3 4 6 8 10 11 13 13 14 15 15 15 15 15 17 18 19 19 19 18 17 17 18 18 18 19 19 20 20 21 22 23 23 22 21 21 22 23 23 23 23 23 23 23 23 23 23 24 24 23 23 23 24 25 25 26 27 27 28 28 28 27 28 28
1 1 2 2 1 2 2 0 2 1 1 3 1 2 4 3 3 3 1 3 3 4 4 4 3 2 3 5 5 2 2 4 4 5 5 6 8 11 12 13 14 15 15 16 16 16 16 17 19 19 20 19 19 18 18 18 18 19 20 20 20 20 21 22 23 23 23 22 22 23 23 24 24 23 23 24 24 24 25 25 26 26 26 26 25 25 26 26 27 28 29 30 30 29 29 30 30
2 1 1 0 2 0 0 1 1 1 2 4 3 2 3 3 4 3 4 5 6 6 5 2 3 3 1 2 3 3 4 5 5 5 5 6 9 11 13 14 15 15 15 16 16 16 17 17 17 18 19 19 19 18 19 19 19 20 21 21 21 21 21 21 22 23 23 24 24 24 24 25 25 24 24 24 24 25 25 26 27 28 28 28 28 28 28 27 28 29 30 31 31 30 30 32 32
1 2 2 1 2 1 1 1 1 1 1 4 4 4 3 4 4 3 7 8 7 7 6 4 5 4 4 4 4 3 4 3 5 5 5 6 8 11 12 13 14 15 15 15 15 15 16 17 17 17 18 19 19 19 19 20 20 20 20 21 22 21 21 21 21 22 23 24 25 25 25 26 26 26 26 26 26 25 26 26 27 28 29 29 30 30 30 29 30 31 32 32 32 32 32 33 33
0 1 1 0 1 1 0 1 1 2 1 2 3 4 5 5 1 2 3 5 7 7 7 6 5 3 3 3 2 2 3 4 4 5 5 6 9 11 11 12 12 13 13 14 14 15 16 17 17 17 18 19 20 20 20 20 20 20 21 21 22 22 22 22 22 22 23 25 25 25 26 26 26 26 26 27 27 27 27 27 27 28 29 29 30 31 31 31 31 32 33 33 33 32 33 34 34
1 2 2 1 1 1 1 1 1 1 1 2 1 4 7 5 2 4 3 3 4 5 6 6 3 1 3 3 2 2 3 5 5 5 5 6 8 10 12 12 12 12 12 13 14 15 16 17 17 17 18 19 20 20 20 20 20 20 20 21 22 22 22 23 23 24 25 26 26 27 26 26 26 27 26 27 27 27 27 28 28 29 29 30 31 31 31 31 32 33 34 34 34 33 34 35 34
Wind_Direction
188 185 190 215 297 298 272 231 237 229 214 75 83 107 70 45 109 100 79 101 107 58 40 57 40 20 7 4 6 26 33 20 61 324 243 136 121 82 26 10 358 347 337 320 334 344 337 328 335 345 348 347 345 343 341 340 339 337 336 334 332 331 330 329 329 328 328 327 328 329 329 328 326 326 324 321 318 314 314 310 297 291 292 289 289 291 289 284 279 280 294 308 284 261 254 240 230
171 217 234 260 275 277 276 205 236 227 160 98 63 66 102 142 104 68 61 63 65 62 37 33 49 46 14 245 313 294 57 59 83 92 147 78 115 75 23 4 353 345 332 320 331 342 334 324 331 342 345 346 344 341 340 339 338 336 335 334 332 332 330 329 328 327 325 325 326 327 327 327 326 325 324 320 317 314 311 310 303 292 288 287 287 288 284 279 272 277 293 298 284 265 268 248 234
160 220 247 258 258 247 268 231 248 263 145 108 69 70 146 121 82 74 69 66 60 60 47 350 165 56 290 215 337 286 127 101 72 72 88 43 54 15 7 350 344 340 329 323 328 334 327 319 329 341 344 345 344 341 340 338 338 336 335 333 332 332 330 329 328 326 324 323 323 325 325 324 324 323 323 320 315 313 311 309 309 300 294 287 278 284 284 276 270 281 294 290 284 278 299 259 232
158 194 240 260 254 225 260 234 253 311 43 88 91 77 80 85 89 84 76 74 64 31 20 338 150 87 325 355 17 282 137 98 71 52 336 49 47 345 348 336 338 335 327 326 324 325 320 317 328 340 343 347 346 342 340 338 337 335 335 334 333 333 332 331 328 326 323 322 323 324 323 322 322 320 319 318 315 312 311 309 309 301 298 290 275 280 282 278 271 277 285 285 284 282 321 277 229
160 223 243 261 276 238 284 271 324 31 42 339 99 92 73 86 103 98 90 88 74 23 10 342 20 112 328 13 0 297 93 101 90 81 338 56 40 337 337 330 331 331 329 325 319 318 314 314 328 341 344 349 348 343 340 338 338 336 336 335 336 335 335 331 328 327 324 323 323 323 321 322 320 319 316 314 313 310 310 308 309 302 297 292 276 273 277 277 272 270 272 277 279 274 294 293 240
264 251 236 246 261 305 297 284 57 78 37 319 103 101 77 87 95 98 115 109 91 59 25 341 13 16 180 133 58 38 57 85 83 78 43 355 353 330 330 324 325 330 323 321 319 313 310 316 329 340 345 350 349 345 342 340 340 339 338 337 337 337 338 334 329 327 325 325 323 322 321 321 320 317 314 311 309 307 308 306 307 305 298 292 279 272 271 270 267 268 266 267 273 272 270 277 269
276 260 219 234 242 242 310 65 66 83 12 356 77 99 86 87 85 108 135 124 136 114 61 351 358 318 196 159 77 93 87 70 31 69 4 317 325 320 326 320 318 317 311 321 326 314 314 319 327 337 347 351 350 347 344 342 342 342 341 339 339 338 341 339 335 330 328 328 324 323 321 321 321 317 313 310 307 304 305 303 303 303 299 292 281 273 268 267 266 267 265 264 268 271 267 266 280
261 266 161 224 252 252 31 72 55 56 64 35 58 74 82 88 81 104 116 108 172 112 145 174 327 303 166 222 224 142 125 103 117 78 302 309 311 311 318 313 313 307 308 321 328 323 322 323 328 336 346 351 351 348 345 344 344 345 344 341 342 342 344 343 338 332 329 330 326 324 322 321 321 317 313 310 308 304 302 300 299 299 300 292 280 273 269 268 266 267 266 267 266 265 267 266 274
237 227 34 348 184 109 54 87 88 76 103 85 79 84 82 90 80 53 110 119 114 88 132 105 351 319 278 267 173 158 141 110 132 240 282 316 308 311 315 312 312 302 306 318 329 332 330 331 334 336 343 350 350 349 348 348 347 348 346 343 344 344 346 346 338 333 331 331 329 327 324 322 322 319 313 309 307 304 302 300 297 296 299 293 280 275 272 267 266 269 266 267 265 259 261 263 261
229 192 339 275 165 114 101 111 108 89 96 85 98 109 95 96 99 0 332 91 91 30 95 67 305 276 291 302 112 142 119 108 123 68 22 329 314 317 315 307 306 298 304 316 330 337 339 337 337 337 340 345 348 350 352 353 352 350 348 345 345 345 348 348 343 338 335 333 332 330 328 325 323 321 315 310 308 305 303 300 297 294 295 294 284 277 274 268 268 266 260 265 263 255 254 256 252
240 182 15 243 189 139 138 107 99 101 106 105 104 104 102 92 101 162 296 91 94 240 115 131 243 306 290 278 101 127 124 142 121 71 334 319 319 326 314 307 304 297 302 312 327 338 344 341 339 341 338 340 346 350 352 353 352 351 348 346 345 346 350 351 348 345 343 338 334 334 333 329 325 323 319 316 313 310 307 302 299 295 293 292 286 278 273 269 269 264 256 262 262 255 248 250 250
280 211 114 237 233 81 101 103 110 114 115 156 133 117 121 112 185 176 174 120 109 204 143 130 279 339 280 253 133 153 140 143 118 77 306 317 317 316 310 310 304 300 298 304 324 339 343 341 340 341 338 338 342 346 348 349 350 350 348 346 348 350 352 352 350 350 350 344 336 336 337 333 331 327 323 322 320 315 310 305 302 296 290 289 285 273 267 265 263 262 255 257 260 252 246 248 246
334 257 201 262 332 52 99 98 108 127 138 175 125 119 130 144 217 24 31 70 139 221 109 83 307 278 280 23 142 153 133 123 115 299 310 316 310 306 306 308 306 305 291 296 329 340 334 337 338 339 340 339 338 341 345 346 348 349 349 350 352 352 352 351 351 349 349 345 339 339 339 337 335 331 328 326 322 319 315 308 304 299 290 287 285 270 263 263 258 260 252 250 252 246 246 247 237
327 341 352 252 9 82 99 100 139 153 129 99 100 125 147 165 50 31 334 259 109 119 96 97 322 348 294 293 146 128 118 125 23 304 313 313 311 308 305 301 303 307 282 294 335 325 321 329 335 338 340 339 337 338 342 346 348 351 353 353 351 348 348 350 350 348 345 342 341 342 342 341 338 332 330 325 321 322 320 313 308 303 296 288 284 271 261 260 256 258 250 243 248 245 251 248 228
336 294 306 89 86 86 61 110 158 176 114 112 117 138 156 117 77 50 300 314 68 101 139 156 22 4 305 311 85 92 121 132 287 296 315 315 316 312 309 300 302 312 286 309 328 313 316 324 333 337 338 340 337 337 341 347 350 354 354 349 346 344 345 348 348 347 344 340 342 343 344 347 343 335 330 327 324 327 326 319 312 306 300 293 282 270 259 258 253 253 249 243 248 247 255 250 220
349 308 278 101 88 100 0 212 143 166 108 118 125 138 162 130 118 218 34 351 334 146 175 170 163 250 300 311 76 105 145 159 288 301 316 315 321 318 319 316 317 329 319 325 324 316 319 326 332 332 335 339 338 339 342 347 351 353 350 346 346 346 345 347 346 348 347 342 343 346 348 350 345 338 334 332 331 331 332 326 321 315 305 297 284 270 257 254 250 247 249 240 243 248 251 239 215
319 299 187 121 99 87 339 350 112 138 109 114 137 155 183 130 146 191 99 264 273 212 189 203 186 206 250 264 147 131 172 250 289 301 311 315 324 319 322 329 327 333 332 328 328 328 325 328 331 328 333 336 340 345 343 346 351 349 347 350 348 346 348 348 348 351 351 344 342 349 351 348 343 339 336 335 334 330 331 331 332 327 314 302 283 268 254 247 246 241 243 235 239 245 238 222 204
326 289 218 100 64 58 358 25 59 135 128 138 155 173 224 122 149 136 142 224 228 241 231 215 206 206 220 237 243 218 218 250 274 297 308 315 315 307 312 323 325 329 331 332 332 329 323 324 327 329 331 333 344 348 344 345 346 347 351 352 346 347 352 350 352 354 352 346 342 348 349 347 345 342 338 337 335 333 328 328 336 341 337 315 284 260 249 244 244 239 239 231 236 234 221 211 193
12 316 347 52 50 49 18 38 35 35 117 134 137 147 319 54 99 128 264 245 203 237 238 199 211 216 211 218 223 222 216 233 280 292 291 296 292 291 306 320 326 328 333 337 329 323 325 330 331 328 327 335 347 348 346 343 342 350 353 348 344 352 354 350 356 356 352 350 346 347 346 345 348 346 343 340 341 343 335 330 339 352 3 351 325 266 252 252 246 237 233 225 230 227 216 203 184
74 30 42 71 101 79 32 44 40 13 87 127 117 99 321 97 53 150 271 296 252 245 265 179 203 211 178 187 187 191 208 240 268 262 258 263 268 282 309 320 325 329 335 335 327 330 336 331 323 321 328 338 345 347 347 343 345 350 348 344 347 353 352 352 358 353 352 356 352 349 344 343 348 350 347 344 346 351 349 345 349 352 353 348 335 345 20 9 328 246 234 225 225 222 211 190 172
36 31 49 79 116 90 40 43 41 5 33 96 112 126 224 124 75 260 276 301 261 200 46 37 358 16 15 80 150 169 210 234 245 243 247 253 264 290 309 315 320 326 331 332 331 335 331 326 320 319 329 336 342 348 345 345 349 345 340 345 352 351 349 355 356 350 355 0 357 351 344 342 347 351 350 347 347 351 356 357 359 353 347 346 337 331 340 355 16 27 321 233 219 213 199 177 165
57 45 40 33 62 93 79 56 27 354 19 80 122 156 339 73 219 220 235 260 239 97 86 93 332 343 330 317 228 210 226 238 248 249 252 260 281 299 305 312 315 319 325 327 329 331 329 331 320 317 329 334 340 346 343 348 350 337 336 345 351 349 350 355 353 353 358 358 360 355 348 349 349 350 349 349 351 351 356 1 6 2 353 356 359 359 3 10 14 16 26 64 130 176 177 168 160
101 73 43 33 52 86 93 66 12 353 21 51 71 347 340 272 252 212 222 242 261 321 150 159 188 244 247 261 265 258 251 254 261 266 273 286 297 297 300 303 302 310 314 317 325 328 329 322 313 320 331 331 335 339 341 349 341 332 337 344 350 352 354 353 351 358 356 352 0 359 356 358 354 351 349 349 353 353 356 1 4 7 8 8 12 19 22 27 29 9 24 81 108 127 162 168 158
90 100 72 55 67 79 82 82 33 12 31 24 359 315 284 254 264 17 259 247 253 266 242 147 167 223 233 240 243 244 249 252 255 264 268 273 280 283 286 286 292 299 298 308 323 323 319 309 313 327 325 317 323 329 336 342 330 332 339 342 349 356 355 351 355 0 351 347 359 3 2 3 1 356 350 350 354 355 358 1 359 5 16 16 15 22 19 25 53 64 75 102 118 122 154 174 167
68 102 105 87 84 86 96 110 79 18 35 7 309 271 256 244 335 327 259 250 237 226 185 152 193 222 229 237 241 242 243 246 249 255 255 257 267 272 272 277 288 286 283 305 319 318 311 297 311 320 306 306 316 324 330 329 326 334 337 339 348 354 353 353 359 358 349 347 355 5 7 6 9 3 355 355 356 357 360 2 2 7 17 24 23 24 24 34 62 70 79 93 96 107 136 162 164
78 110 115 106 102 101 117 134 116 213 227 53 292 274 263 94 19 277 244 239 204 157 159 179 201 221 234 233 232 233 237 247 251 258 261 259 265 263 256 256 261 261 265 298 309 309 295 291 303 305 297 304 314 321 324 323 328 332 329 337 345 345 349 357 1 356 351 350 352 3 8 9 13 9 6 5 359 359 2 5 7 7 12 33 42 29 20 31 63 72 80 93 90 98 119 133 140
110 110 104 104 115 114 123 231 136 222 217 168 257 281 282 93 64 263 220 178 146 148 195 203 198 223 236 230 225 226 229 246 252 256 262 259 262 259 248 236 232 242 259 279 287 281 280 290 295 294 299 305 310 316 320 321 326 325 325 336 338 335 344 355 358 355 355 354 354 358 5 14 14 14 21 16 5 3 5 7 10 10 12 32 56 56 38 37 52 66 77 92 98 97 104 114 117
118 119 102 104 133 126 180 227 164 244 215 180 253 281 274 153 193 242 189 156 168 185 211 203 202 221 231 229 222 218 221 239 247 240 239 248 256 255 247 234 235 252 262 264 265 267 278 287 288 293 303 308 310 314 316 316 319 319 324 334 333 330 340 350 355 354 356 358 359 355 -0 17 16 14 31 28 14 10 8 8 11 14 17 29 48 65 72 68 68 73 78 87 96 100 104 113 114
137 160 103 117 177 164 196 213 156 230 198 166 286 298 258 200 223 235 176 163 183 205 222 211 215 218 223 228 218 216 221 231 234 224 228 243 248 245 245 243 241 246 249 253 258 265 275 283 289 299 307 309 311 312 310 310 313 315 322 333 330 328 338 347 351 351 355 0 3 357 357 16 19 15 33 37 26 20 15 12 14 16 17 27 41 51 68 81 82 81 81 85 94 103 114 120 118
160 221 84 139 204 200 187 180 180 218 193 151 335 331 247 204 221 216 146 166 183 210 236 227 229 226 220 222 218 224 226 228 229 228 234 238 240 241 243 242 239 240 241 246 253 263 274 280 290 300 307 311 313 311 311 312 314 316 323 331 325 327 338 347 350 347 354 1 4 0 358 13 20 17 31 39 34 31 25 18 18 18 15 23 35 41 53 69 79 83 87 91 92 96 105 115 127
166 54 48 184 230 194 158 150 223 228 194 193 355 292 273 195 192 162 143 176 183 211 236 231 235 233 222 214 217 230 231 233 235 239 237 233 238 242 245 245 240 241 241 245 253 265 275 281 288 295 302 310 311 308 306 309 315 317 321 324 319 325 337 348 350 345 353 1 2 3 2 11 16 18 29 38 36 35 33 27 26 22 16 21 31 37 46 57 69 78 83 89 91 95 100 107 120
148 72 326 213 229 175 140 70 291 344 272 224 231 268 292 122 152 154 158 181 198 229 244 243 244 238 232 222 220 231 234 238 240 241 241 243 244 239 242 246 243 245 246 250 259 268 275 283 289 291 297 303 305 304 301 302 309 315 318 319 317 323 335 346 348 345 354 358 359 1 2 10 14 15 25 34 37 36 36 35 38 35 24 22 28 34 40 49 62 72 76 79 83 91 98 103 112
174 194 227 188 277 208 154 321 351 353 313 230 204 259 308 59 141 163 174 187 198 231 251 249 252 248 244 242 233 238 243 254 254 249 250 248 238 231 243 250 249 252 254 259 264 270 275 282 285 286 292 296 298 300 300 300 304 310 317 321 318 322 333 339 338 341 351 354 356 358 359 10 13 12 19 27 32 35 33 36 44 48 41 34 33 35 39 44 52 64 70 73 80 86 92 97 102
185 223 248 142 271 238 177 32 8 311 272 224 200 230 274 279 225 190 186 195 191 216 246 247 253 249 242 243 247 259 255 255 257 256 264 259 229 217 239 253 257 260 263 268 272 277 281 283 284 285 289 293 298 302 303 303 306 312 317 320 316 317 328 335 329 330 340 349 354 354 355 8 13 10 15 20 26 29 23 30 44 43 47 57 53 50 51 47 46 51 57 62 75 85 89 93 96
0 343 323 358 274 238 122 95 23 312 256 239 242 245 265 273 265 215 186 192 194 211 231 236 242 244 249 245 239 260 261 259 264 261 269 268 213 202 231 252 263 269 275 278 281 285 287 289 290 291 293 297 302 303 302 304 311 317 315 316 314 315 330 332 319 318 323 336 349 351 352 2 10 10 12 15 20 25 14 14 35 40 41 58 69 70 66 59 52 48 50 52 57 69 78 84 89
321 319 327 316 292 321 77 103 61 343 308 257 244 244 265 271 275 260 197 186 197 217 228 239 237 229 249 246 223 227 238 254 268 292 267 250 232 227 240 251 259 273 284 289 288 288 288 291 294 296 300 303 303 299 298 304 309 309 307 311 311 310 320 318 311 314 315 320 333 344 350 358 4 6 12 13 13 21 18 6 14 31 37 40 52 65 66 66 66 58 53 54 51 55 63 69 73
295 308 289 268 286 22 80 86 21 347 327 261 238 248 268 271 273 271 203 169 191 219 233 246 233 211 216 222 215 209 218 227 192 257 270 261 254 243 240 247 258 271 284 290 292 291 291 294 294 297 301 301 298 294 295 298 298 300 303 304 302 299 301 303 306 311 308 309 318 328 342 356 1 1 7 12 10 13 19 11 5 10 22 26 26 37 48 59 73 71 62 62 62 60 61 65 60
313 307 285 282 11 341 62 76 271 2 358 274 312 311 283 272 268 259 152 152 194 210 221 235 229 217 201 203 210 202 210 222 186 240 251 243 237 233 237 248 259 270 280 284 285 287 290 290 288 292 298 299 295 292 293 293 291 296 297 296 297 299 301 301 305 307 299 301 309 317 328 347 358 359 359 3 8 7 10 15 9 1 4 15 12 13 23 34 55 72 69 58 60 65 68 65 49
318 284 284 334 3 325 24 89 233 350 300 288 339 326 290 279 266 220 146 169 200 182 201 227 220 221 198 184 193 184 197 275 275 260 245 221 213 211 223 241 256 267 276 279 276 279 283 283 286 294 301 301 297 291 289 291 292 292 289 292 298 302 305 304 303 304 302 302 308 314 319 333 347 351 351 351 356 1 4 6 9 2 357 7 9 1 1 6 17 37 50 37 24 44 64 54 31
338 336 351 18 17 354 275 282 321 314 282 285 309 298 287 288 271 152 140 151 102 120 213 284 262 256 228 149 141 156 192 245 274 283 286 241 209 206 214 229 243 248 260 276 279 276 276 278 284 291 291 291 291 288 286 287 290 290 289 295 302 304 306 304 296 294 296 300 309 315 317 324 331 333 338 343 344 347 353 354 358 358 354 7 10 358 349 348 359 4 10 15 8 3 19 32 4
26 19 50 68 0 337 257 299 318 310 277 273 298 305 297 275 147 164 121 59 359 235 215 261 254 256 272 328 41 193 211 228 252 275 287 279 244 231 227 230 236 237 254 275 278 271 270 275 281 286 287 288 289 288 286 284 286 290 292 298 301 299 302 304 301 303 302 298 308 315 315 317 318 320 324 329 333 334 333 335 342 341 341 357 358 350 343 338 346 344 337 -0 6 358 352 348 333
18 349 32 94 311 299 290 306 317 339 347 295 354 17 311 288 177 179 160 155 255 197 193 240 237 225 230 245 239 222 220 222 229 249 268 286 284 274 270 261 250 250 264 273 271 273 279 282 284 286 289 293 294 293 290 288 288 289 288 289 289 289 294 299 301 306 306 300 301 303 301 306 310 314 317 318 320 323 322 318 315 314 315 321 320 323 334 327 320 312 301 316 340 343 342 328 314
300 261 296 331 308 293 299 315 343 40 293 290 44 80 284 306 312 118 115 199 215 173 203 234 224 213 209 212 222 215 213 212 211 225 238 249 254 255 262 265 261 264 273 274 274 282 290 291 289 288 292 297 297 295 292 290 290 290 286 284 284 283 285 292 295 294 296 294 291 291 292 297 304 310 313 312 311 311 313 312 305 298 293 291 284 267 276 280 280 292 284 266 274 288 310 311 307
234 225 265 308 302 287 306 327 311 240 281 333 20 71 205 291 292 24 54 279 234 217 226 228 214 214 210 202 206 205 206 197 185 205 222 228 236 241 252 262 267 270 273 277 282 290 294 294 293 292 293 297 297 296 293 290 289 287 284 278 277 279 281 288 295 294 294 292 290 294 297 298 298 301 306 308 307 305 304 304 302 297 288 281 276 266 264 261 259 274 278 267 263 254 257 285 287
156 180 253 314 327 295 300 308 266 264 42 6 340 27 109 271 283 310 20 3 276 248 225 214 201 205 208 202 203 205 205 192 181 197 214 224 237 245 255 264 268 270 275 282 288 293 292 292 293 291 291 293 295 295 293 291 289 285 281 274 272 276 278 282 288 292 294 292 292 297 299 300 296 292 297 301 303 301 298 297 296 295 291 285 279 272 266 268 265 261 264 262 255 244 237 253 263
13 24 262 279 301 281 271 271 275 326 64 254 296 355 48 280 288 283 0 10 307 293 100 99 99 136 198 193 196 204 200 196 193 205 223 235 247 253 260 267 270 276 282 286 289 291 291 291 291 291 292 293 292 292 291 290 288 283 280 277 275 277 278 278 279 281 285 286 288 293 296 298 296 289 288 291 296 298 295 291 289 290 291 286 282 277 272 275 274 266 263 256 253 254 246 244 252
314 320 226 197 242 243 217 245 278 27 25 246 269 322 46 296 283 216 149 185 115 79 80 91 85 73 143 163 187 204 202 204 200 207 230 242 252 258 261 264 271 281 285 283 284 288 291 293 293 295 296 293 288 287 286 286 285 281 280 279 278 280 281 279 277 277 280 281 282 286 290 291 289 283 279 279 285 291 292 289 285 284 285 283 281 279 276 279 279 273 270 263 258 257 253 249 249
303 279 253 88 299 284 80 312 8 68 302 250 253 330 51 209 262 174 149 156 100 77 73 82 78 71 113 151 197 214 216 220 203 203 229 245 257 263 264 265 270 278 279 275 278 284 288 292 294 297 299 297 288 283 281 281 280 279 279 278 278 280 280 276 274 276 278 278 278 281 283 283 281 276 272 272 275 280 285 287 283 279 277 277 277 277 276 277 278 275 272 270 267 262 258 254 251
245 292 339 36 6 356 24 338 11 94 254 235 170 2 4 224 240 178 127 120 96 89 98 102 96 53 40 42 6 338 335 340 330 273 263 262 264 268 269 271 273 277 277 273 275 277 280 288 293 297 301 301 292 283 278 276 277 278 278 277 278 279 277 275 273 274 276 275 275 276 275 275 275 272 270 270 271 272 274 278 280 280 278 276 274 272 272 271 270 268 267 269 270 268 266 262 258
316 342 32 55 61 30 339 327 3 357 267 250 1 349 293 262 254 171 132 134 132 110 108 126 136 104 337 343 347 332 321 313 291 271 270 267 269 275 277 279 282 284 285 282 278 275 276 285 293 297 302 303 295 286 278 274 276 279 279 278 278 277 274 274 274 275 276 275 273 272 271 270 270 271 271 272 273 271 269 271 274 277 278 277 274 270 269 267 264 262 262 263 265 267 267 264 264
300 175 112 98 111 122 250 313 293 275 284 297 336 324 214 247 266 162 135 138 143 126 128 136 140 228 267 305 309 299 290 283 269 259 263 267 276 284 287 290 291 292 293 290 286 281 279 286 294 297 300 300 294 287 281 278 279 281 280 278 278 276 275 275 274 276 277 276 274 271 269 268 267 270 272 274 273 269 268 270 271 273 275 274 273 271 268 266 263 261 261 262 262 264 263 262 264
290 57 76 89 117 138 145 140 188 205 325 308 269 235 212 190 154 115 110 115 150 151 151 147 239 232 216 282 287 284 281 283 292 293 285 287 297 303 303 302 300 299 298 294 291 288 286 290 296 297 297 297 292 287 284 282 282 282 281 279 279 277 275 273 273 275 276 276 276 272 271 270 270 271 272 273 272 268 266 268 269 270 272 271 269 269 267 266 264 262 262 262 262 261 260 260 261
314 32 31 248 282 98 112 21 5 99 49 285 249 276 292 343 31 65 113 123 153 151 169 207 227 205 187 256 271 271 281 311 357 333 305 300 307 313 314 312 309 307 306 304 303 301 297 297 299 298 298 296 293 291 289 287 285 283 282 281 280 279 277 276 276 276 277 278 276 274 273 273 273 273 274 274 272 269 267 267 268 269 269 269 268 266 266 265 264 263 262 262 262 262 260 259 259
68 66 238 251 33 78 115 17 350 37 298 286 272 288 302 335 330 299 142 149 169 162 181 209 206 167 198 256 268 271 0 14 359 334 320 316 319 321 322 322 320 317 315 313 312 310 305 303 302 302 302 302 301 299 295 291 288 286 286 285 283 282 281 281 281 281 280 278 277 276 276 276 277 278 277 277 275 272 270 268 268 269 269 268 267 266 265 265 263 262 262 262 263 263 259 258 258
154 214 253 106 94 68 324 87 5 344 306 295 305 321 295 241 236 232 192 197 186 164 164 149 71 56 6 332 352 23 24 2 337 329 324 322 326 326 327 329 329 328 325 321 320 319 315 314 312 309 308 310 310 307 303 299 293 289 288 288 287 285 285 285 286 284 281 278 279 280 279 279 281 281 279 279 277 274 273 272 270 270 270 269 268 266 265 264 262 261 261 261 262 260 256 256 257
279 327 346 33 122 167 217 143 161 184 280 300 313 332 298 240 222 188 195 201 173 151 152 118 74 40 18 18 19 10 357 331 315 315 313 318 323 325 328 331 333 336 336 335 336 336 335 332 327 322 319 318 317 316 312 309 306 301 296 294 292 290 289 288 288 286 282 281 282 283 282 282 283 282 281 280 278 277 276 275 275 274 272 271 269 267 265 263 261 260 260 260 261 259 255 255 256
1 54 75 13 73 137 180 120 140 151 172 292 311 304 274 257 329 60 174 179 149 144 147 126 94 42 1 353 359 348 321 302 300 302 302 310 316 322 330 334 336 340 344 349 352 352 350 344 338 334 330 328 328 327 324 319 315 312 306 302 300 297 294 291 288 285 283 283 285 284 285 286 285 284 283 281 279 279 278 277 276 274 274 273 271 269 267 264 261 259 259 259 259 258 255 255 255
152 143 151 169 165 122 69 338 310 93 145 189 209 284 273 270 358 40 65 87 94 107 122 126 113 32 320 307 307 303 297 291 291 295 295 301 311 321 329 334 339 342 347 354 359 359 357 352 347 342 337 337 337 336 334 328 323 318 312 309 306 301 298 293 288 285 283 284 286 287 288 287 285 286 286 283 282 281 279 276 275 274 274 273 272 270 268 264 261 260 259 259 258 256 255 255 254
Height
788 789 788 790 788 790 790 790 805 801 797 815 819 824 830 824 823 826 831 833 836 838 836 837 837 837 839 840 841 841 841 843 847 850 850 847 844 845 846 845 845 843 842 841 840 839 838 838 836 835 833 832 831 830 829 827 826 824 822 821 819 818 817 815 814 812 810 809 807 806 805 804 802 801 800 798 797 796 795 795 794 793 793 793 793 793 792 792 793 793 793 793 793 794 795 795 795
789 790 789 791 788 793 792 787 808 805 802 823 823 826 831 822 825 832 835 837 839 839 836 836 837 838 838 838 838 840 842 841 842 844 844 843 844 845 844 844 844 843 842 841 840 839 838 837 835 834 833 831 830 829 828 826 825 823 822 820 819 818 816 815 813 812 810 808 807 806 804 803 801 800 799 797 796 795 794 793 792 792 791 791 791 791 791 791 791 792 792 792 791 792 792 793 794
789 790 789 792 789 791 791 790 809 808 807 828 832 829 825 826 832 835 836 838 838 836 837 837 837 838 837 838 839 842 843 840 840 841 842 842 843 843 843 844 843 843 842 840 839 838 838 836 835 834 832 831 830 829 827 826 824 823 821 820 818 817 815 814 812 811 809 808 806 805 804 802 801 799 798 796 795 794 793 792 791 790 790 790 789 790 789 789 789 790 790 790 790 790 790 791 792
789 790 790 791 792 793 795 799 806 807 816 830 836 831 823 830 834 836 837 837 837 836 837 836 838 838 838 841 839 840 841 840 841 842 842 842 843 843 843 843 843 842 841 840 839 838 837 835 834 833 831 830 829 828 827 825 824 822 821 819 818 816 815 813 811 810 808 807 805 804 803 801 800 798 796 795 794 793 791 790 790 789 789 788 788 788 788 788 787 788 789 789 789 789 789 789 791
790 791 790 790 797 796 798 802 803 815 832 831 834 833 825 831 833 836 837 836 837 837 838 837 840 838 838 840 838 840 841 840 841 842 842 843 843 843 843 843 842 841 841 840 838 837 836 835 833 832 831 829 828 827 826 825 823 822 820 818 817 815 814 812 811 809 808 806 805 804 802 800 799 797 795 794 793 792 791 789 788 787 787 786 786 786 786 786 786 786 787 788 788 787 788 788 790
790 790 789 789 793 793 800 808 814 829 836 827 830 833 828 831 832 835 836 836 836 837 838 838 840 840 840 838 836 840 840 840 841 841 842 842 842 843 843 842 841 841 840 839 838 836 835 834 832 831 830 829 828 826 825 824 822 821 820 818 816 814 813 811 810 809 807 806 804 803 801 799 798 796 794 793 791 790 789 788 787 786 785 785 784 785 784 785 785 785 785 786 786 786 786 787 788
790 792 790 793 793 793 806 815 823 832 832 825 827 831 830 832 832 833 834 836 838 838 839 839 838 841 842 838 838 840 839 840 841 841 842 842 842 842 842 841 841 840 839 838 837 835 834 833 831 830 829 828 827 826 825 823 822 820 819 817 816 814 812 810 809 808 806 805 803 802 800 798 796 795 793 791 790 789 788 787 786 785 784 783 783 783 783 783 783 784 784 784 785 785 784 785 786
790 793 790 798 803 800 809 820 827 831 831 828 828 831 831 833 833 833 834 836 839 838 839 839 838 843 842 836 839 840 839 841 840 841 841 841 842 841 841 840 840 839 838 837 836 834 833 832 831 830 828 828 826 825 824 823 822 820 819 817 815 814 812 810 808 807 805 804 803 801 799 797 795 793 792 790 789 787 786 785 784 784 783 782 781 781 781 781 781 782 782 782 782 783 783 784 785
789 792 793 800 806 807 815 825 831 830 830 830 832 834 833 833 833 834 834 835 837 837 838 838 839 843 841 835 838 839 839 840 840 841 840 841 840 840 840 839 839 838 837 836 835 834 832 832 830 829 828 827 826 825 824 823 821 820 819 817 815 813 811 810 808 806 805 803 802 800 798 796 794 792 790 788 787 786 784 783 782 782 781 781 780 779 779 779 780 780 780 781 781 781 782 783 784
789 791 796 801 805 814 822 826 830 831 831 830 832 833 833 834 834 835 834 835 836 837 838 838 839 841 838 836 838 839 839 840 839 840 840 840 839 839 839 838 838 837 836 835 834 833 832 831 830 829 828 827 827 825 824 823 821 820 818 817 815 813 812 810 808 806 804 802 800 798 796 794 792 790 788 787 785 784 783 782 781 780 779 779 778 778 778 778 778 778 778 779 779 780 781 782 782
795 792 795 804 809 816 821 826 833 833 831 830 832 832 833 833 834 835 834 836 836 837 838 839 840 840 837 835 838 839 838 839 839 839 839 839 839 839 838 838 837 836 835 834 833 832 831 831 830 830 829 828 827 825 824 823 821 820 819 817 815 813 812 809 807 805 803 801 799 797 795 793 791 789 787 785 784 783 781 780 779 779 778 777 777 776 776 777 777 777 777 777 777 778 779 780 780
800 797 798 808 810 813 817 825 833 833 832 832 833 833 832 833 835 835 835 836 836 836 837 839 840 839 838 836 838 838 837 839 838 838 838 838 838 838 838 837 836 835 834 833 833 832 831 831 830 830 829 828 827 826 824 823 821 820 819 817 815 813 811 809 807 805 803 801 799 796 794 792 790 788 786 784 783 781 780 779 778 777 776 776 775 775 775 775 775 776 776 776 776 776 777 777 778
801 799 802 812 811 812 816 825 831 832 834 831 831 833 831 834 835 834 834 835 835 837 837 838 838 839 839 835 835 836 836 838 837 838 837 837 838 837 837 835 835 834 833 833 832 831 831 831 831 830 829 828 827 826 824 823 821 820 819 817 815 813 811 809 807 805 803 801 799 796 794 791 789 787 785 784 782 780 779 778 777 776 775 774 774 774 774 774 774 774 775 775 775 775 776 776 777
801 799 804 813 812 813 818 827 830 830 834 831 830 833 832 834 834 834 835 836 836 837 838 837 836 839 840 836 835 835 836 837 836 837 837 837 837 836 835 834 834 833 832 832 832 832 832 831 831 830 829 828 827 826 824 823 821 820 818 816 815 813 811 809 807 805 803 801 799 796 793 791 788 787 785 783 781 779 777 776 775 775 774 773 773 773 773 773 773 773 774 774 774 774 775 775 777
800 798 802 812 814 816 822 825 825 827 833 832 832 832 833 834 833 836 836 837 838 836 837 837 836 840 839 838 837 835 835 836 836 837 836 836 836 835 834 833 833 832 832 832 832 832 831 831 830 830 829 828 827 825 824 822 821 820 818 816 815 813 811 809 807 806 803 801 799 796 793 790 788 786 784 782 780 778 777 775 774 773 772 772 772 771 771 772 772 772 772 773 773 773 773 774 776
799 800 802 811 817 819 823 821 821 828 833 832 832 832 833 835 833 836 836 836 838 835 836 837 836 838 836 836 835 834 835 835 836 836 835 835 835 835 833 833 833 832 833 833 833 832 831 831 830 830 829 828 827 825 824 822 821 819 818 817 815 813 811 809 808 806 803 801 799 796 793 790 788 785 783 781 779 778 776 775 774 772 771 770 770 770 770 770 770 771 771 772 772 772 772 772 775
799 803 806 812 815 819 823 821 823 829 833 833 833 832 833 835 835 835 835 836 837 835 835 835 834 834 834 833 832 833 834 834 835 835 835 835 834 834 833 833 833 833 833 833 833 832 831 831 830 830 829 828 826 825 824 822 820 819 818 816 815 813 811 809 807 805 803 801 799 797 793 790 788 785 783 782 780 778 776 774 773 771 770 769 769 769 769 769 769 770 770 771 771 771 771 771 774
803 806 807 813 818 824 826 823 824 826 831 834 833 832 832 835 836 835 836 836 836 835 833 832 832 831 832 831 831 832 833 834 834 834 834 834 834 833 833 833 833 833 833 833 833 833 831 830 830 829 829 828 826 825 823 822 821 819 817 816 814 812 810 808 807 805 803 801 799 797 793 790 788 785 783 782 780 777 776 774 773 770 768 768 768 768 768 768 768 768 769 770 770 770 770 771 773
808 808 810 823 827 829 827 825 826 825 828 832 831 831 832 835 835 835 837 835 834 835 831 829 831 829 829 829 830 831 832 833 833 833 834 833 834 833 832 832 832 833 832 833 832 832 831 830 830 829 828 827 825 824 823 822 820 819 817 815 814 811 809 808 806 804 803 801 799 797 794 791 788 785 784 782 780 778 775 774 773 770 767 767 767 767 767 767 767 767 768 768 769 768 768 769 772
810 811 820 831 829 829 829 827 829 827 827 830 832 833 833 835 834 835 837 834 832 832 829 828 830 828 827 828 828 830 831 832 833 833 833 832 833 832 832 832 832 832 832 832 832 831 831 830 829 828 827 826 825 823 822 821 819 818 817 815 813 811 809 807 805 804 802 800 798 797 794 792 789 786 784 782 780 778 775 773 772 770 768 768 767 767 766 766 766 766 767 767 767 766 766 768 772
812 817 827 830 825 831 834 830 831 829 827 829 833 835 835 834 834 835 836 837 833 829 829 829 829 828 827 827 827 829 830 831 831 831 831 831 831 831 832 832 832 832 831 831 831 831 830 829 828 827 826 825 824 822 821 820 818 817 816 815 812 810 809 807 805 804 802 800 798 797 795 792 789 786 785 782 780 778 775 773 772 770 769 768 767 767 766 766 766 766 765 765 765 765 765 768 771
819 827 829 827 825 833 836 833 835 832 829 830 833 836 835 834 834 834 835 837 832 827 827 827 828 828 827 827 827 828 829 829 830 830 830 830 830 830 831 831 831 831 831 831 830 830 829 828 827 826 825 824 823 821 820 819 818 817 815 813 811 810 808 806 805 803 801 800 798 796 794 792 789 787 785 783 780 778 776 774 773 772 770 768 767 766 767 767 767 766 766 765 765 765 766 768 770
823 832 830 828 828 833 836 835 837 834 832 833 835 836 835 834 833 831 832 833 827 824 825 825 826 826 826 827 827 827 828 828 828 828 829 829 829 829 830 830 830 830 830 830 829 829 828 827 826 825 824 823 821 820 819 817 816 815 814 812 811 809 807 806 804 803 801 800 798 796 794 791 790 788 786 784 781 779 777 776 774 773 771 769 768 767 767 768 768 767 766 766 766 767 768 769 771
821 832 833 832 833 834 837 837 837 835 835 836 836 837 836 835 833 831 831 828 824 823 823 824 825 825 825 826 826 826 827 827 827 827 827 827 828 828 828 828 828 829 829 829 828 828 827 826 825 824 822 821 820 818 817 816 815 814 813 811 810 808 807 806 804 802 802 801 799 796 794 792 790 789 787 785 782 780 779 777 775 774 772 771 770 769 768 768 768 767 767 766 767 768 769 770 770
824 832 834 834 835 836 836 836 837 836 836 836 836 837 834 831 832 833 829 824 821 821 821 823 824 824 824 824 825 825 825 825 825 825 826 826 826 826 827 827 827 827 827 827 827 826 826 825 824 822 821 819 818 817 816 815 814 813 812 811 810 808 807 806 804 803 802 801 799 797 794 792 791 789 788 786 784 782 780 778 776 774 773 772 771 770 769 769 768 767 767 767 767 768 769 769 769
827 831 832 833 836 835 835 835 836 836 835 836 838 836 832 830 833 830 823 820 819 819 821 821 822 823 823 823 823 823 823 823 823 823 824 824 825 825 825 825 825 825 825 825 825 825 824 823 822 820 819 817 816 815 815 814 813 812 812 811 810 809 808 806 804 803 802 801 799 797 795 793 791 790 789 787 785 783 781 780 778 776 774 773 772 772 771 770 769 768 768 768 768 769 769 770 769
827 829 831 834 835 835 835 834 835 835 835 837 838 836 831 831 835 829 818 817 818 818 821 820 821 822 821 821 820 820 821 821 821 822 822 823 823 823 823 823 823 823 823 823 823 823 822 821 819 819 818 817 816 815 814 813 813 812 812 811 810 809 808 806 805 803 802 801 799 798 796 794 792 791 790 788 787 785 783 781 780 777 776 774 773 773 772 772 771 770 770 769 769 769 770 770 771
826 828 832 834 834 834 835 834 834 835 835 835 836 837 834 834 835 826 817 816 818 818 819 819 820 820 819 818 818 818 818 819 820 820 820 821 821 821 821 822 822 822 822 821 821 820 819 818 817 817 817 816 815 814 814 813 812 812 811 811 810 809 808 807 805 804 803 801 800 798 797 794 792 791 790 789 788 787 785 783 781 779 778 776 774 773 773 772 772 772 771 770 770 770 770 771 772
826 826 831 837 835 835 835 833 834 835 835 834 835 834 831 834 829 818 815 817 817 818 818 817 817 817 816 816 816 816 816 817 818 818 819 819 819 820 820 820 820 820 820 820 820 818 817 817 816 816 816 815 815 814 814 813 813 812 811 810 810 809 808 807 806 804 803 802 800 799 797 795 793 792 791 789 789 788 787 785 783 781 780 778 777 775 774 773 773 773 772 772 771 771 771 772 773
827 825 829 837 838 836 833 833 834 835 834 832 835 830 819 823 822 814 815 817 817 819 818 816 815 815 815 814 815 815 815 816 817 817 817 818 818 818 818 819 818 818 818 818 818 817 817 817 816 816 815 815 815 814 814 813 812 812 811 810 810 809 808 807 806 805 804 802 800 799 798 796 794 793 791 790 789 788 788 786 785 783 782 780 779 778 776 775 774 774 774 773 772 772 772 773 774
828 827 829 832 834 836 834 833 835 836 834 830 836 834 817 815 817 815 816 816 817 819 817 815 814 814 814 813 814 814 814 815 815 815 816 816 817 817 817 817 818 817 817 817 816 816 817 817 817 816 816 815 815 814 813 813 812 811 811 810 809 808 808 807 806 805 804 802 801 799 798 796 795 793 792 791 790 789 788 787 786 785 784 782 781 780 778 777 776 776 775 774 774 774 774 775 775
827 830 831 827 827 834 838 836 836 837 836 831 836 836 821 813 815 815 815 816 817 817 815 814 813 813 812 812 813 813 813 813 813 814 814 815 815 816 817 817 817 818 817 817 817 817 817 817 817 816 815 815 814 814 813 813 812 811 810 810 809 808 807 806 805 805 804 803 801 800 799 797 795 794 793 791 790 790 788 787 786 786 785 784 783 782 780 779 779 778 777 776 776 775 776 776 777
828 831 829 824 823 830 837 839 837 838 838 833 835 836 826 816 815 815 815 815 816 816 815 813 812 812 811 811 812 812 812 812 812 813 813 814 814 815 816 817 817 818 818 818 817 817 817 816 816 816 815 815 814 814 813 812 811 811 810 809 809 808 807 806 805 805 804 803 801 800 799 797 796 795 793 792 791 790 789 788 787 786 786 785 785 784 783 782 781 780 779 779 778 778 778 778 779
829 828 825 822 822 823 830 838 840 838 839 836 835 837 830 819 814 814 814 813 814 816 814 813 812 811 811 811 811 811 812 812 812 812 812 813 813 814 815 816 817 817 817 817 817 817 816 816 815 815 814 814 814 813 813 812 811 810 810 809 808 807 807 806 805 804 804 803 802 801 799 798 797 796 794 793 792 791 791 789 788 787 786 785 784 784 784 784 783 783 782 781 781 780 780 780 780
836 833 830 828 826 822 825 836 841 839 838 837 835 835 828 818 811 810 811 811 812 813 812 811 811 810 810 810 810 811 811 811 811 811 811 812 813 813 814 815 816 816 816 816 816 816 815 815 814 814 814 813 813 813 812 812 811 810 810 809 808 807 807 806 805 804 804 803 802 801 800 798 797 796 795 794 793 792 792 791 789 788 787 785 784 784 784 784 784 784 784 784 784 783 783 783 783
844 839 837 835 831 827 830 838 842 840 840 838 835 832 824 816 810 806 807 809 810 810 810 809 809 809 809 809 809 810 810 810 810 810 810 811 812 813 813 814 815 815 815 815 815 815 814 814 814 813 813 813 812 812 812 812 811 811 810 809 809 808 807 806 806 804 803 803 802 801 800 799 798 796 796 795 794 793 792 792 791 790 789 788 786 785 784 783 783 784 784 785 785 785 785 785 785
844 840 838 834 831 831 833 839 842 840 840 833 826 825 820 814 809 804 803 807 810 810 809 810 808 808 809 808 808 808 808 809 808 809 810 810 811 812 812 813 813 813 813 813 813 813 813 813 813 813 812 813 812 812 812 812 811 811 810 810 809 808 807 806 806 805 803 802 802 801 800 799 798 797 796 795 794 794 793 792 792 791 790 790 789 787 786 785 784 784 784 784 784 785 786 786 786
844 843 839 832 834 836 835 840 841 839 841 830 822 824 820 813 808 801 803 808 809 809 809 809 808 807 807 807 807 807 807 807 808 808 808 809 809 810 811 811 812 812 812 812 812 812 812 812 812 812 812 812 811 811 811 811 811 811 810 809 809 808 807 806 805 804 803 802 801 801 800 799 798 797 797 796 795 794 793 793 792 792 791 791 790 789 788 787 786 785 785 784 784 784 784 785 786
845 842 838 837 841 841 837 841 841 839 842 834 828 830 822 812 806 800 803 806 804 804 806 806 806 805 804 805 806 806 807 807 807 807 807 807 808 808 809 810 810 810 810 811 811 811 811 811 811 810 810 810 810 811 810 810 810 810 810 809 808 807 806 805 804 803 803 802 801 800 800 799 798 798 797 796 795 795 794 793 793 793 792 791 791 790 790 788 787 787 786 785 785 784 784 784 785
849 844 840 844 850 847 841 842 842 839 840 837 835 836 825 810 804 802 802 802 803 804 804 805 805 804 804 804 805 805 807 807 807 807 807 807 807 808 808 808 808 809 809 809 809 809 809 809 809 809 809 809 809 809 809 809 809 809 809 808 808 807 805 804 803 802 802 801 800 800 799 798 798 797 797 796 796 795 794 794 793 793 793 792 792 791 791 790 789 788 787 787 787 786 786 785 785
852 855 850 851 856 856 851 847 846 840 837 839 836 828 816 806 803 804 805 805 806 806 806 806 805 805 804 805 805 806 806 807 807 807 807 807 807 808 808 808 808 808 808 808 808 808 808 808 808 808 808 807 807 808 808 808 807 807 807 807 806 806 805 803 803 802 801 800 799 798 798 797 797 797 797 796 796 795 795 794 794 793 793 793 792 792 792 791 791 790 789 788 788 788 788 787 787
850 859 859 858 860 861 859 855 850 840 835 840 838 823 811 804 802 805 807 808 808 806 807 807 805 804 805 805 805 805 805 805 806 807 807 807 807 808 808 808 808 807 807 807 807 807 807 806 806 806 805 805 805 805 806 806 806 806 805 805 805 804 804 803 802 801 800 800 799 798 797 796 796 796 796 796 795 795 794 794 794 793 793 792 792 792 792 792 792 791 790 790 789 789 789 789 788
846 857 863 862 862 861 861 858 851 839 833 839 840 831 822 810 802 804 807 806 805 805 805 804 803 803 803 804 804 804 804 804 805 806 806 806 806 807 807 807 807 807 807 807 806 806 806 805 805 804 804 803 803 803 803 804 803 804 804 804 803 803 802 801 801 801 800 799 799 798 797 796 795 795 795 795 794 794 794 793 793 793 793 792 792 791 791 791 791 791 791 791 790 790 790 790 789
847 860 867 862 862 861 860 860 854 843 838 839 840 839 836 824 810 806 806 805 804 803 803 801 800 801 800 801 802 802 803 803 804 804 805 805 805 805 805 806 806 806 806 806 805 805 804 804 804 803 803 802 802 801 801 801 801 801 801 801 801 801 801 800 800 800 799 798 798 797 796 795 794 793 793 793 793 793 793 793 792 792 792 792 791 791 790 790 790 790 790 790 790 790 790 790 789
854 864 866 862 864 863 861 861 853 843 838 838 841 843 838 825 812 808 807 806 804 800 798 798 798 799 799 799 800 801 801 801 802 803 803 803 803 804 804 804 804 804 805 804 804 803 803 803 802 802 801 801 801 800 800 799 799 799 799 799 799 798 798 798 798 798 798 797 796 796 795 794 793 792 792 792 792 792 792 792 791 791 791 791 790 790 790 789 789 789 789 788 789 789 789 789 789
862 866 865 865 865 863 864 861 850 843 838 837 843 846 838 822 811 810 809 805 803 799 796 797 797 797 798 799 799 800 800 800 801 801 802 802 802 803 803 803 803 803 803 803 802 802 801 801 801 800 800 799 799 799 799 798 798 798 797 797 796 796 796 796 796 796 795 795 795 794 794 793 792 791 791 790 790 790 790 790 790 790 790 789 789 789 788 788 788 788 787 787 787 787 787 787 787
865 866 865 865 865 863 861 856 849 841 834 840 848 848 843 831 812 806 806 803 799 798 797 797 797 798 798 798 799 799 799 799 800 800 800 801 801 801 801 801 801 801 801 801 800 800 800 799 799 799 798 798 797 797 797 796 796 796 796 795 795 794 794 794 794 793 793 793 792 792 792 792 791 790 790 789 789 789 788 788 788 788 788 788 788 788 787 787 787 786 786 786 785 785 785 785 785
867 865 859 854 853 853 850 849 848 837 829 842 851 849 848 837 814 802 800 797 795 796 798 799 799 799 798 798 798 798 798 799 799 800 800 800 800 800 800 800 800 800 799 799 799 799 799 798 798 797 796 796 796 795 795 794 794 794 793 793 793 792 792 792 791 791 791 790 790 790 790 790 790 789 789 788 787 787 787 786 786 786 786 786 786 786 785 785 785 785 784 784 784 784 783 783 783
864 859 852 841 835 837 838 836 834 831 834 845 853 852 846 830 809 800 797 795 795 796 796 798 799 799 799 798 799 798 799 799 799 800 800 800 800 799 799 799 798 798 798 798 798 797 797 797 797 796 795 795 794 794 793 792 792 792 791 791 790 790 790 790 789 789 788 788 788 788 788 787 788 787 787 786 785 785 785 785 784 784 784 783 783 783 783 783 783 783 782 782 782 782 781 781 781
855 852 849 840 835 839 840 833 828 831 838 847 859 855 836 818 803 795 795 795 795 796 796 798 798 799 800 799 800 800 800 800 800 800 800 800 800 799 799 798 798 797 797 797 797 796 796 796 795 795 793 793 793 792 792 791 790 790 789 789 788 788 788 787 787 786 786 786 785 785 785 785 785 785 784 784 784 783 783 782 782 782 781 781 781 781 780 781 780 780 780 780 779 779 779 779 779
853 854 853 845 842 844 844 842 838 838 837 845 859 848 821 813 804 792 793 795 795 797 797 799 799 799 801 800 800 800 799 800 799 799 800 799 799 799 798 797 797 797 796 796 796 795 795 794 794 793 791 791 791 790 790 789 788 788 788 787 787 786 785 785 784 784 783 783 783 782 782 782 781 781 781 781 781 781 780 780 780 779 779 779 778 778 777 777 777 777 777 777 776 776 777 776 776
853 855 853 847 848 847 847 854 854 852 850 843 842 830 808 802 798 792 796 796 795 798 797 798 799 799 800 799 799 800 799 799 799 799 799 799 798 798 797 797 796 796 795 795 794 794 793 792 792 791 790 789 789 788 788 788 787 787 786 785 785 784 784 783 782 781 781 781 780 780 779 779 778 778 778 778 778 778 778 777 777 776 776 776 775 775 775 774 774 774 774 773 773 773 773 773 773
853 852 851 854 860 854 848 859 864 864 858 835 821 817 807 801 799 796 797 797 796 798 797 798 797 797 799 799 798 799 799 799 799 799 799 798 798 798 797 797 796 795 795 794 794 793 793 792 791 789 788 787 787 786 786 785 785 785 784 784 783 783 782 781 780 779 779 778 778 778 777 777 776 776 776 775 775 776 775 775 774 773 773 773 773 772 772 772 771 771 770 769 769 770 770 769 769
855 850 855 859 861 856 849 851 854 854 848 830 818 817 812 812 811 801 797 799 798 798 797 796 796 797 798 798 798 798 798 799 799 799 799 798 798 798 797 797 796 795 794 794 793 793 792 791 790 789 787 786 785 785 785 784 784 783 782 782 781 781 781 780 779 778 777 777 776 775 775 775 774 774 774 773 773 773 773 772 772 771 770 770 769 769 769 769 768 768 767 766 765 766 766 765 765
862 857 862 859 851 851 850 850 851 852 850 837 823 820 817 814 810 802 799 799 797 797 797 796 797 798 798 798 798 798 798 799 799 799 799 799 798 798 797 796 795 795 794 793 792 791 791 790 789 788 786 785 784 784 783 783 782 782 781 780 779 779 779 778 777 777 776 775 774 773 773 772 772 772 771 771 770 770 770 770 769 768 768 767 766 766 766 766 765 764 764 763 762 763 762 761 761
866 863 864 859 853 853 852 851 852 852 853 848 835 829 820 805 797 796 796 794 794 796 797 797 797 798 798 798 798 798 799 799 799 799 799 799 798 797 797 796 795 794 793 792 791 790 790 789 788 787 786 785 784 783 783 781 781 780 779 778 778 777 777 776 775 775 774 773 772 771 770 770 769 769 769 768 768 767 767 767 766 766 765 764 764 763 763 762 762 761 760 760 759 760 759 757 757
857 855 857 856 856 859 855 855 858 855 853 853 849 841 822 799 791 791 791 791 791 793 795 796 797 797 798 798 798 798 799 798 799 799 798 798 797 797 796 795 794 794 792 792 791 790 789 788 788 787 786 785 784 783 783 781 780 779 778 777 776 776 775 774 773 772 771 770 769 769 768 767 767 766 766 766 765 764 763 763 763 762 762 761 760 760 759 759 758 757 756 756 756 756 755 754 754
859 852 853 852 852 854 851 854 861 860 856 854 855 851 826 799 793 793 792 793 793 793 795 795 796 797 797 797 797 797 798 798 798 798 798 797 797 796 795 794 794 793 792 791 790 789 789 788 788 787 786 786 784 783 783 781 780 779 778 776 775 774 773 771 770 769 768 768 767 766 766 765 764 763 763 763 762 761 760 760 759 759 758 758 757 756 756 755 754 753 753 752 752 752 751 750 750